Flag for Germany Weather past 2 weeks in Osterholz-Scharmbeck, Lower Saxony, Germany

Now
63 °F

Passing clouds.


Feels Like: 63 °F
Forecast: 57 / 73 °F
Wind: 5 mph from East

Location: Bremen

Current Time: Sep 17, 2014 at 1:54:47 AM

Latest Report: Sep 17, 2014 at 1:00 AM


Visibility: 9 mi

Pressure: 30.03 "Hg

Humidity: 85%

Dew point: 58 °F

Location of Osterholz-ScharmbeckLocation

Historic Weather in Osterholz-Scharmbeck — Graph

°F

Osterholz-Scharmbeck temperature yesterday

Maximum temperature yesterday: 77 °F (at 5:00 PM)
Minimum temperature yesterday: 56 °F (at 6:00 AM)
Average temperature yesterday: 66 °F

Past Weeks' High & Low Weather Summary

 TemperatureHumidityPressure
High79 °F (Sep 5, 3:00 PM)100% (Sep 12, 7:00 AM)30.32 "Hg (Sep 12, 7:00 AM)
Low49 °F (Sep 3, 6:00 AM)48% (Sep 8, 3:00 PM)29.87 "Hg (Sep 6, 6:00 PM)
Average62 °F81%30.10 "Hg
* Reported Midnight between Sep 1 and Sep 2 — Midnight between Sep 16 and Sep 17, Osterholz-Scharmbeck, Weather by CustomWeather, © 2014

Note: Actual official high and low records may vary slightly from our data, if they occured in-between our weather recording intervals... More about our weather records

Advertising

Osterholz-Scharmbeck weather history for previous 24 hours

 ConditionsComfort  
Time TempWeatherWind HumidityBarometerVisibility
12:00 AM
Sep 17
64 °FPassing clouds.3 mph85%30.03 "Hg12 mi
11:00 PM
Sep 16
66 °FPassing clouds.5 mph81%30.03 "Hg9 mi
10:00 PM67 °FPassing clouds.5 mph80%30.03 "Hg9 mi
9:00 PM68 °FPassing clouds.5 mph78%30.02 "Hg11 mi
8:00 PM70 °FPassing clouds.5 mph73%30.01 "Hg19 mi
7:00 PM72 °FPassing clouds.5 mph70%30.00 "Hg12 mi
6:00 PM75 °FPassing clouds.5 mph59%30.00 "Hg11 mi
5:00 PM77 °FPassing clouds.6 mph57%30.01 "Hg9 mi
4:00 PM76 °FPassing clouds.7 mph56%30.01 "Hg11 mi
3:00 PM74 °FPassing clouds.6 mph59%30.02 "Hg11 mi
2:00 PM75 °FPassing clouds.7 mph59%30.03 "Hg16 mi
1:00 PM73 °FPassing clouds.6 mph63%30.05 "Hg11 mi
12:00 PM70 °FPassing clouds.5 mph67%30.06 "Hg12 mi
11:00 AM66 °FScattered clouds.5 mph71%30.07 "Hg9 mi
10:00 AM64 °FPassing clouds.5 mph79%30.07 "Hg9 mi
9:00 AM60 °FPassing clouds.3 mph86%30.07 "Hg6 mi
8:00 AM57 °FPassing clouds.3 mph92%30.07 "Hg5 mi
7:00 AM56 °FScattered clouds.3 mph93%30.06 "Hg7 mi
6:00 AM56 °FPassing clouds.3 mph94%30.06 "Hg12 mi
4:00 AM59 °FPassing clouds.3 mph93%30.06 "Hg9 mi
3:00 AM60 °FFog.3 mph96%30.06 "Hg6 mi
2:00 AM61 °FFog.2 mph96%30.07 "Hg6 mi
1:00 AM62 °FFog.2 mph94%30.07 "Hg6 mi
Weather by CustomWeather, © 2014

See weather overviewHow to use our weather pages